Change the Weather History Date:

Wednesday, December 5, 2012

  Actual Average Record
Temperature  
Mean Temperature -26 °F -  
Max Temperature -22 °F 0 °F 26 °F (2011)
Min Temperature -30 °F -10 °F -32 °F (2000)
Degree Days  
Heating Degree Days 91    
Moisture  
Dew Point -31 °F    
Average Humidity 72    
Maximum Humidity 76    
Minimum Humidity 58    
Precipitation  
Precipitation 0.00 in - - ()
Sea Level Pressure  
Sea Level Pressure 30.29 in    
Wind  
Wind Speed 3 mph ()    
Max Wind Speed 10 mph    
Max Gust Speed -    
Visibility 15.0 miles    
Events Snow    
Averages and records for this station are not official NWS values.
T = Trace of Precipitation, MM = Missing Value Source: Averaged Metar Reports

Daily Weather History Graph

Daily Weather History Graph

Search for Another Location

Airport or City:

Trip Planner

Search our weather history database for the weather conditions in past years. The results will help you decide how hot, cold, wet, or windy it might be!

Date:

Astronomy

Dec. 05, 2012 Rise Set
Actual Time 11:38 AM MST 1:24 PM MST
Civil Twilight 9:33 AM MST 3:28 PM MST
Nautical Twilight 8:10 AM MST 4:52 PM MST
Astronomical Twilight 7:00 AM MST 6:01 PM MST
Moon 11:49 PM MST (12/5) 12:47 PM MST (12/5)
Length of Visible Light 5h 54m
Length of Day
1h 45m
Waning Gibbous, 59% of the Moon is Illuminated
Dec 5
Waning Gibbous
Dec 6
Last Quarter
Dec 13
New
Dec 19
First Quarter
Dec 28
Full

Hourly Weather History & Observations

Time (MST) Temp. Windchill Dew Point Humidity Pressure Visibility Wind Dir Wind Speed Gust Speed Precip Events Conditions
12:00 AM -25.6 °F - -31.0 °F 76% 30.28 in 15.0 mi Calm Calm - N/A   Partly Cloudy
1:00 AM -29.2 °F -46.2 °F -34.6 °F 75% 30.28 in 15.0 mi SW 5.8 mph - N/A   Partly Cloudy
2:00 AM -27.4 °F -45.9 °F -32.8 °F 75% 30.29 in 15.0 mi WSW 6.9 mph - N/A   Partly Cloudy
3:00 AM -27.4 °F - -32.8 °F 75% 30.28 in 15.0 mi Calm Calm - N/A   Partly Cloudy
4:00 AM -27.4 °F - -32.8 °F 75% 30.28 in 15.0 mi Calm Calm - N/A   Scattered Clouds
5:00 AM -25 °F - -30 °F 63% 30.27 in 15 mi Calm Calm - - Snow Snow
5:00 AM -23.8 °F - -31.0 °F 69% 30.27 in 15.0 mi Calm Calm - N/A   Mostly Cloudy
6:00 AM -23.8 °F - -29.2 °F 76% 30.27 in 15.0 mi Calm Calm - N/A   Scattered Clouds
8:00 AM -25.6 °F - -31.0 °F 76% 30.27 in 15.0 mi Calm Calm - N/A   Partly Cloudy
9:00 AM -27.4 °F -44.1 °F -32.8 °F 75% 30.29 in 15.0 mi WSW 5.8 mph - N/A   Scattered Clouds
10:00 AM -25.6 °F -41.9 °F -32.8 °F 69% 30.29 in 15.0 mi WSW 5.8 mph - N/A   Mostly Cloudy
11:00 AM -26 °F - -32 °F 59% 30.30 in 15 mi SW 4.6 mph - - Snow Snow
11:00 AM -25.6 °F -39.8 °F -31.0 °F 76% 30.30 in 15.0 mi SW 4.6 mph - N/A   Mostly Cloudy
12:00 PM -23.8 °F -35.0 °F -29.2 °F 76% 30.30 in 15.0 mi SW 3.5 mph - N/A   Mostly Cloudy
1:00 PM -23.8 °F -35.0 °F -29.2 °F 76% 30.31 in 15.0 mi WSW 3.5 mph - N/A   Mostly Cloudy
2:00 PM -23.8 °F -39.8 °F -29.2 °F 76% 30.31 in 15.0 mi SW 5.8 mph - N/A   Mostly Cloudy
3:00 PM -23.8 °F - -31.0 °F 69% 30.32 in 15.0 mi Calm Calm - N/A   Mostly Cloudy
4:00 PM -25.6 °F -41.9 °F -31.0 °F 76% 30.32 in 15.0 mi SW 5.8 mph - N/A   Mostly Cloudy
5:00 PM -25 °F - -31 °F 58% 30.31 in 15 mi SW 5.8 mph - -   Partly Cloudy
5:00 PM -25.6 °F -41.9 °F -31.0 °F 76% 30.31 in 15.0 mi SW 5.8 mph - N/A   Partly Cloudy
7:00 PM -25.6 °F -39.8 °F -32.8 °F 69% 30.30 in 15.0 mi WSW 4.6 mph - N/A   Partly Cloudy
8:00 PM -27.4 °F -44.1 °F -32.8 °F 75% 30.30 in 15.0 mi SW 5.8 mph - N/A   Partly Cloudy
9:00 PM -25.6 °F -43.8 °F -32.8 °F 69% 30.29 in 15.0 mi SW 6.9 mph - N/A   Partly Cloudy
10:00 PM -25.6 °F -45.4 °F -31.0 °F 76% 30.29 in 15.0 mi SW 8.1 mph - N/A   Clear
11:00 PM -25 °F - -31 °F 58% 30.29 in 15 mi WSW 10.4 mph - - Snow Snow
11:00 PM -25.6 °F -48.0 °F -31.0 °F 76% 30.29 in 15.0 mi WSW 10.4 mph - N/A   Clear